Hourly Data Report for October 28, 2013

All times are specified in Local Standard Time (LST). Add 1 hour to adjust for Daylight Saving Time where and when it is observed.

PANGNIRTUNG
NUNAVUT

66°08'36.300" N
65°42'40.500" W
22.60 m
2403049
71826
WXP

Download Data

Hourly Data (October 2013)
Hourly Data Report for October 28, 2013
Temp Definition
°C
Dew Point Temp Definition
°C
Rel Hum Definition
%
Wind Dir Definition
10's deg

Wind Spd Definition
km/h
Visibility Definition
km
Stn Press Definition
kPa
Hmdx Definition


Wind Chill Definition


Weather Definition


TIME
00:00 -6.2 -10.1 74 11 9   99.90   -10 LegendNANA
01:00 -5.7 -9.6 74 12 7   99.88   -9 LegendNANA
02:00 -5.4 -9.5 73 5 7   99.85   -9 LegendNANA
03:00 -5.1 -9.1 73 6 7   99.82   -8 LegendNANA
04:00 -4.9 -8.8 74 3 9   99.78   -9 LegendNANA
05:00 -5.0 -9.2 72 11 9   99.76   -9 LegendNANA
06:00 -4.7 -8.5 75 3 13   99.75   -10 LegendNANA
07:00 -4.5 -8.4 74 5 11   99.74   -9 LegendNANA
08:00 -4.3 -9.2 69 6 11   99.73   -9 LegendNANA
09:00 -4.0 -8.3 72 5 15   99.71   -9 LegendNANA
10:00 -3.4 -8.3 69 5 15   99.70   -9 LegendNANA
11:00 -3.1 -8.3 67 4 19   99.68   -9 LegendNANA
12:00 -2.7 -8.2 66 4 17   99.66   -8 LegendNANA
13:00 -2.8 -8.4 65 4 15   99.65   -8 LegendNANA
14:00 -2.8 -8.4 65 5 9   99.65   -6 LegendNANA
15:00 -3.2 -8.7 66 5 15   99.66   -8 LegendNANA
16:00 -4.3 -8.5 72 7 6   99.65   -7 LegendNANA
17:00 -5.0 -9.0 73 11 7   99.65   -8 LegendNANA
18:00 -5.5 -9.2 75 10 11   99.65   -10 LegendNANA
19:00 -5.2 -10.2 68 12 4   99.65   -7 LegendNANA
20:00 -5.5 -9.9 71 8 6   99.64   -8 LegendNANA
21:00 -5.2 -10.2 68 12 13   99.64   -10 LegendNANA
22:00 -5.6 -10.6 68 10 15   99.60   -11 LegendNANA
23:00 -4.9 -10.7 64 5 7   99.58   -8 LegendNANA

Notes on Data Quality.

Legend

  • E = Estimated
  • M = Missing
  • NA = Not Available
  • ‡ = Partner data that is not subject to review by the National Climate Archives
Date modified: